Tracking 19831 objects as of 23-Aug-2019
HD Live streaming from Space Station
objects crossing your sky now

SL-24 PLAT


SL-24 PLAT is no longer on orbit


NORAD ID: 40304
Int'l Code: 2014-070G
Perigee: N/A
Apogee: N/A
Inclination: N/A
Period: N/A
Semi major axis: N/A
RCS: N/A
Launch date: November 6, 2014
Source: Commonwealth of Independent States (former USSR) (CIS)
Launch site: Orenburg, Russia (OREN)
Decay date: 2017-12-29

Note: This is SATELLITE DEBRIS
aabbcc
Your satellite tracking list
Your tracking list is empty




NASA's NSSDC Master Catalog

Two Line Element Set (TLE):
1 40304U 14070G   17362.96128900  .82247041  27662-5  44193-3 0  9997
2 40304  97.4330 139.5831 0006060 264.2684  96.2453 16.55447127177986
Source of the keplerian elements: AFSPC